Location: Brown Observing Site
(43.4354°N, 116.3366°W)
Time: 17:24:05
(UTC-07:00)

Envisat - Pass Details

Date: 24 October 2019
Orbit: 764 x 766 km, 98.1° (Epoch: 21 November)

Event Time Altitude Azimuth Distance (km) Brightness Sun altitude
Rises 20:40:59 0° 195° (SSW) 3,217 6.4 -21.1°
Reaches altitude 10° 20:43:35 10° 207° (SSW) 2,296 5.7 -21.6°
Maximum altitude 20:47:53 28° 266° (W) 1,422 5.1 -22.4°
Drops below altitude 10° 20:52:13 10° 324° (NW) 2,310 6.0 -23.2°
Sets 20:54:51 0° 336° (NNW) 3,241 6.6 -23.6°
